Temp
4 3 3 3 3 3 3 2 3 3 3 2 3 3 3 3 4 4 4 4 4 5 5 5 5 5 4 4 4 4 3 3 3 3 3 3 3 3 3 3 2 2 2 1 1 1 1 1 1 1 1 1 1 1 1 1 1 1 1 1 1 1 1 1 1 1 1 1 2 2 2 1 1 1 1 1 1 1 1 1 2 2 2 2 2 2
3 3 3 3 3 3 2 2 2 2 2 2 2 2 3 3 3 3 4 4 4 4 4 4 4 3 3 3 3 3 3 3 3 3 3 3 3 3 3 2 2 1 1 1 1 1 1 1 1 1 1 1 1 1 1 1 1 1 1 1 1 1 1 1 1 1 1 1 1 1 1 1 1 1 1 1 1 1 1 1 1 1 2 2 2 2
2 2 2 2 2 2 2 1 1 1 1 1 2 2 3 3 3 3 3 4 4 3 3 3 3 3 3 3 3 3 3 3 3 3 3 3 3 3 2 2 2 1 1 1 1 1 1 1 1 1 1 1 0 0 0 0 0 0 0 0 0 0 0 0 0 0 0 0 0 0 0 0 0 0 0 0 0 1 1 1 1 1 1 2 2 2
2 2 2 2 2 2 2 1 1 1 1 1 2 2 2 3 3 3 3 3 3 2 2 2 3 2 2 2 2 3 3 3 3 3 3 3 3 3 2 2 2 1 1 1 1 1 1 1 0 0 0 0 0 -0 -0 -0 -0 -0 -0 -0 -0 -0 -0 -0 -0 -0 -0 -0 -0 -0 -0 -0 -0 -0 -0 -0 0 0 1 1 1 1 1 2 2 2
2 2 2 1 1 1 1 1 1 1 1 1 2 2 2 2 2 2 2 2 2 2 2 2 2 2 2 2 2 2 2 2 3 3 3 3 3 2 2 2 2 1 1 1 1 1 1 0 0 0 -0 -0 -0 -0 -0 -0 -0 -0 -0 -0 -0 -1 -1 -1 -1 -1 -1 -1 -1 -1 -1 -1 -1 -1 -0 -0 -0 0 0 0 1 1 1 1 2 2
2 2 1 1 1 0 0 0 0 1 1 1 1 1 1 2 2 2 2 2 2 2 2 2 2 1 1 2 2 2 2 2 2 2 3 2 2 2 2 2 1 1 1 1 1 1 1 1 0 0 -0 -0 -0 -0 -0 -1 -1 -1 -1 -1 -1 -1 -1 -1 -1 -1 -1 -1 -1 -1 -1 -1 -1 -1 -1 -1 -0 -0 0 0 0 1 1 1 1 1
1 1 1 1 1 0 -0 -0 -0 0 0 0 1 1 1 1 1 1 1 2 2 2 1 1 2 2 1 2 2 2 2 2 2 2 2 2 2 2 1 1 1 1 1 1 1 1 1 1 0 0 0 -0 -0 -0 -0 -1 -1 -1 -1 -1 -1 -1 -1 -1 -1 -1 -1 -2 -1 -1 -1 -1 -1 -1 -1 -1 -0 -0 -0 -0 0 0 0 1 1 1
1 1 1 0 0 -0 -1 -1 -1 -1 -0 0 0 0 0 1 1 1 1 1 1 1 1 1 1 1 1 1 1 1 2 2 2 2 2 1 1 1 1 1 1 1 1 1 1 1 1 1 0 0 0 0 -0 -0 -1 -1 -1 -1 -1 -1 -1 -1 -1 -2 -2 -2 -2 -2 -2 -1 -1 -1 -1 -1 -1 -1 -1 -1 -1 -0 -0 -0 0 0 1 1
1 1 0 0 -0 -0 -1 -1 -1 -1 -0 -0 0 0 1 1 1 1 1 1 1 1 1 1 1 1 1 1 0 1 1 1 1 1 1 1 0 0 1 1 1 1 1 1 1 1 1 1 0 0 0 0 -0 -0 -1 -1 -1 -1 -1 -1 -1 -2 -2 -2 -2 -2 -2 -2 -2 -2 -2 -1 -1 -1 -1 -1 -1 -1 -1 -1 -0 -0 -0 0 0 0
2 1 1 0 0 0 -0 -1 -1 -1 -1 -0 -0 0 1 1 1 1 2 2 1 1 1 1 1 1 1 1 0 0 1 1 1 1 1 1 1 1 1 1 1 2 2 2 1 1 1 1 0 0 0 0 -0 -1 -1 -1 -1 -1 -1 -2 -2 -2 -2 -3 -3 -2 -2 -2 -2 -2 -2 -1 -1 -1 -1 -1 -1 -1 -1 -1 -1 -1 -1 -0 -0 -0
2 1 1 0 0 0 0 -0 -1 -1 -1 -0 -0 -0 0 1 1 1 2 2 2 1 1 1 1 1 1 0 0 0 0 0 1 1 1 1 1 1 1 1 1 2 2 1 1 1 1 1 1 0 0 -0 -1 -1 -1 -2 -2 -2 -2 -2 -2 -3 -3 -3 -2 -2 -2 -2 -2 -2 -2 -1 -1 -1 -1 -1 -1 -1 -1 -1 -1 -1 -1 -1 -1 -1
2 1 1 0 0 0 -0 -1 -1 -1 -1 -0 0 1 0 0 0 1 1 2 2 1 1 1 1 1 0 0 -0 -0 -0 -0 -0 0 0 1 0 -0 -0 -0 0 1 1 0 0 0 1 0 0 -0 -1 -1 -1 -2 -2 -2 -2 -3 -3 -3 -3 -3 -3 -3 -2 -2 -2 -2 -2 -2 -2 -2 -2 -1 -1 -1 -1 -1 -1 -1 -1 -1 -1 -1 -1 -1
2 1 1 1 0 0 -0 -1 -1 -1 -0 1 2 2 1 0 -0 0 0 1 1 1 0 0 0 0 0 -0 -0 -0 -0 -0 -0 -0 -0 -0 -0 -0 -1 -1 -0 0 0 -0 -1 -1 -0 -0 -1 -1 -1 -2 -2 -3 -3 -3 -3 -3 -3 -3 -3 -3 -3 -3 -2 -2 -2 -2 -2 -2 -2 -2 -2 -2 -2 -2 -2 -2 -1 -1 -1 -1 -1 -1 -1 -1
1 1 1 1 1 1 0 0 1 1 1 1 1 1 1 0 -0 0 -0 0 0 0 -0 -0 0 0 -0 -0 -1 -1 -1 -1 -0 -0 -0 -0 -0 -0 -1 -1 -1 -0 0 -1 -1 -1 -1 -1 -1 -2 -2 -2 -3 -3 -3 -3 -3 -3 -3 -3 -3 -3 -3 -2 -2 -2 -2 -2 -2 -2 -2 -2 -2 -2 -2 -2 -2 -2 -2 -2 -2 -2 -2 -2 -2 -1
2 2 2 2 2 1 1 1 2 2 1 1 0 0 0 0 -0 -0 -0 0 0 0 -0 0 0 1 -0 -1 -1 -1 -1 -1 -1 -1 -0 -0 -0 -0 -1 -1 -1 -1 -0 -1 -1 -1 -1 -1 -1 -2 -2 -2 -3 -3 -3 -3 -3 -3 -3 -3 -3 -3 -3 -2 -2 -2 -2 -2 -2 -2 -2 -2 -2 -2 -2 -2 -2 -2 -2 -2 -2 -2 -2 -2 -2 -2
2 2 3 2 2 1 1 1 2 1 1 -0 -0 -0 -0 -0 -0 -1 -0 0 0 0 0 1 2 2 1 -0 -1 -1 -1 -2 -1 -1 -1 -0 -0 -0 -1 -1 -1 -1 -1 -1 -1 -1 -1 -1 -1 -2 -2 -2 -3 -3 -3 -3 -3 -3 -3 -3 -3 -3 -3 -3 -2 -2 -2 -2 -2 -2 -2 -2 -2 -2 -2 -2 -2 -2 -2 -2 -2 -2 -2 -2 -2 -2
3 3 3 2 2 1 1 1 1 0 -0 -1 -1 -1 -1 -1 -1 -1 -1 -1 -0 0 0 1 2 2 2 1 -0 -1 -2 -2 -2 -1 -1 -1 -0 -0 -1 -1 -1 -1 -1 -1 -1 -1 -1 -1 -1 -2 -2 -2 -2 -2 -2 -2 -3 -3 -3 -3 -3 -3 -3 -3 -3 -3 -2 -2 -2 -2 -2 -2 -2 -2 -2 -2 -2 -2 -2 -2 -2 -2 -2 -2 -2 -2
2 2 2 2 2 1 0 -0 -0 -0 -1 -1 -1 -1 -1 -1 -1 -1 -1 -1 -1 -0 0 1 1 1 2 2 1 -1 -2 -2 -2 -2 -1 -1 -0 -0 -1 -1 -1 -1 -1 -1 -1 -1 -1 -1 -1 -2 -2 -2 -2 -2 -2 -2 -2 -2 -3 -3 -3 -3 -3 -3 -3 -3 -3 -2 -2 -2 -2 -2 -2 -2 -2 -2 -2 -2 -2 -2 -2 -2 -2 -2 -2 -2
2 2 2 2 1 1 0 -0 -0 -1 -1 -1 -1 -1 -1 -1 -2 -2 -1 -1 -1 -0 -0 0 0 1 1 1 0 -1 -2 -2 -2 -2 -1 -1 -0 -0 -1 -1 -1 -1 -1 -1 -1 -1 -1 -1 -2 -2 -2 -2 -2 -2 -2 -2 -2 -2 -3 -3 -3 -3 -3 -3 -3 -3 -3 -3 -2 -2 -2 -2 -2 -2 -2 -2 -2 -2 -2 -2 -2 -2 -2 -2 -2 -2
1 1 2 1 1 0 0 -0 -0 -1 -1 -1 -1 -1 -1 -1 -1 -1 -1 -1 -1 -1 -1 -0 -0 0 0 0 -0 -1 -2 -2 -2 -2 -1 -1 -1 -0 -1 -1 -1 -1 -1 -1 -1 -1 -1 -1 -2 -2 -2 -2 -2 -2 -2 -2 -2 -2 -3 -3 -3 -3 -3 -3 -3 -3 -3 -3 -3 -2 -2 -2 -2 -2 -2 -2 -2 -2 -2 -2 -2 -2 -2 -2 -2 -2
1 1 1 1 1 1 0 -0 -1 -1 -1 -1 -1 -1 -1 -1 -1 -1 -1 -1 -1 -1 -1 -1 -0 -0 -1 -1 -1 -2 -2 -3 -3 -2 -2 -1 -0 -0 -1 -1 -2 -1 -1 -1 -1 -1 -1 -1 -2 -2 -2 -1 -1 -1 -2 -2 -2 -2 -3 -3 -3 -3 -3 -3 -3 -3 -3 -3 -3 -3 -3 -3 -3 -3 -2 -2 -2 -2 -2 -2 -2 -2 -2 -2 -2 -2
1 0 -0 -0 0 0 -0 -1 -1 -1 -1 -2 -2 -2 -1 -1 -1 -1 -1 -1 -1 -1 -1 -1 -1 -1 -2 -2 -2 -2 -3 -3 -3 -3 -2 -1 -1 -0 -1 -1 -2 -2 -1 -1 -1 -1 -1 -2 -2 -2 -2 -1 -1 -1 -2 -2 -2 -2 -3 -3 -3 -3 -3 -3 -3 -3 -3 -3 -3 -3 -3 -3 -3 -3 -3 -3 -3 -2 -2 -2 -2 -2 -2 -2 -2 -2
-0 -0 -1 -1 -1 -1 -1 -1 -2 -2 -2 -2 -2 -2 -2 -2 -2 -2 -2 -2 -2 -2 -2 -2 -2 -3 -3 -3 -3 -3 -3 -3 -4 -4 -3 -2 -0 -0 -1 -1 -2 -2 -1 -1 -1 -1 -2 -2 -2 -2 -2 -2 -2 -2 -2 -2 -2 -2 -3 -3 -3 -3 -3 -3 -3 -3 -3 -3 -3 -3 -3 -3 -3 -3 -3 -3 -3 -2 -2 -2 -2 -2 -2 -2 -2 -2
-1 -1 -1 -1 -1 -2 -2 -2 -2 -2 -2 -3 -3 -3 -3 -3 -3 -3 -3 -3 -3 -3 -3 -3 -3 -3 -2 -2 -2 -2 -3 -3 -4 -4 -3 -2 -1 -1 -1 -2 -2 -2 -1 -1 -2 -2 -2 -2 -2 -2 -2 -2 -2 -2 -2 -2 -2 -2 -3 -3 -3 -3 -3 -3 -3 -3 -3 -3 -3 -3 -3 -3 -3 -3 -3 -3 -3 -2 -2 -2 -2 -2 -2 -2 -2 -2
-1 -1 -2 -2 -2 -2 -2 -2 -3 -3 -3 -3 -3 -3 -3 -3 -3 -3 -4 -3 -3 -3 -3 -3 -2 -1 -1 -2 -2 -2 -3 -3 -3 -4 -3 -2 -2 -2 -2 -2 -2 -2 -2 -2 -2 -2 -2 -2 -2 -2 -2 -2 -2 -2 -2 -2 -2 -2 -3 -3 -3 -3 -3 -3 -3 -3 -3 -3 -3 -3 -3 -3 -3 -3 -3 -3 -3 -2 -2 -2 -2 -2 -2 -2 -3 -3
-2 -2 -2 -2 -2 -2 -3 -3 -3 -3 -3 -3 -3 -3 -3 -3 -4 -4 -3 -3 -3 -3 -3 -2 -1 -1 -1 -2 -2 -2 -3 -3 -4 -4 -4 -3 -3 -2 -2 -2 -2 -2 -2 -2 -2 -2 -2 -2 -2 -2 -1 -1 -2 -2 -2 -2 -2 -2 -3 -3 -3 -3 -3 -3 -3 -3 -3 -3 -3 -3 -3 -3 -3 -3 -3 -3 -3 -3 -3 -3 -3 -3 -3 -3 -3 -3
-3 -3 -3 -3 -3 -3 -3 -3 -3 -3 -4 -3 -3 -3 -4 -4 -3 -3 -3 -3 -3 -3 -3 -2 -1 -1 -1 -1 -1 -2 -2 -3 -4 -4 -4 -4 -3 -2 -2 -2 -2 -2 -2 -2 -3 -3 -2 -2 -2 -1 -1 -1 -2 -2 -2 -2 -2 -2 -2 -2 -2 -2 -3 -3 -3 -3 -3 -3 -3 -3 -3 -3 -3 -3 -3 -3 -3 -3 -3 -3 -3 -3 -3 -3 -3 -3
-3 -3 -3 -3 -3 -3 -3 -3 -3 -3 -4 -4 -4 -4 -4 -4 -3 -3 -3 -3 -4 -3 -3 -2 -2 -2 -1 -2 -2 -2 -2 -3 -3 -4 -4 -4 -3 -2 -2 -2 -3 -3 -3 -3 -3 -3 -2 -2 -1 -1 -1 -1 -2 -2 -2 -2 -2 -2 -2 -2 -2 -2 -2 -2 -3 -3 -3 -3 -3 -3 -3 -3 -3 -3 -3 -3 -3 -3 -3 -3 -3 -3 -3 -3 -3 -3
-3 -3 -3 -3 -3 -3 -3 -3 -3 -4 -4 -4 -4 -4 -4 -4 -3 -3 -3 -4 -4 -3 -3 -3 -3 -3 -2 -2 -2 -2 -2 -3 -3 -4 -5 -4 -3 -3 -3 -3 -3 -3 -3 -3 -3 -2 -2 -1 -1 -1 -1 -1 -2 -2 -2 -2 -2 -2 -2 -2 -2 -2 -2 -2 -2 -2 -3 -3 -3 -3 -3 -3 -3 -3 -3 -3 -3 -3 -3 -3 -3 -3 -3 -3 -3 -3
-3 -3 -3 -3 -3 -3 -3 -3 -4 -4 -4 -4 -4 -4 -4 -4 -4 -4 -4 -4 -4 -4 -3 -3 -3 -3 -3 -3 -2 -2 -1 -2 -3 -4 -5 -4 -3 -3 -3 -3 -4 -4 -4 -4 -3 -2 -1 -1 -1 -1 -1 -1 -2 -2 -2 -2 -2 -2 -2 -2 -2 -2 -2 -2 -2 -2 -2 -2 -2 -2 -2 -2 -2 -2 -3 -3 -3 -3 -3 -3 -3 -3 -3 -3 -3 -3
-4 -4 -4 -4 -3 -3 -3 -4 -4 -4 -4 -4 -4 -4 -4 -4 -5 -5 -5 -5 -4 -4 -4 -3 -3 -4 -4 -3 -2 -1 -1 -2 -3 -4 -5 -4 -4 -4 -4 -4 -4 -4 -4 -4 -3 -2 -1 -1 -1 -1 -2 -2 -2 -2 -2 -2 -2 -2 -2 -2 -2 -2 -2 -2 -2 -2 -2 -2 -2 -2 -2 -2 -2 -2 -2 -2 -3 -3 -3 -3 -3 -3 -3 -3 -3 -3
-4 -4 -4 -4 -4 -4 -4 -4 -4 -4 -4 -4 -5 -5 -5 -5 -5 -5 -5 -5 -5 -4 -4 -4 -4 -4 -4 -4 -3 -2 -2 -2 -3 -4 -4 -4 -4 -4 -4 -4 -4 -4 -4 -4 -4 -3 -2 -2 -2 -2 -2 -2 -2 -2 -2 -2 -2 -1 -1 -2 -2 -2 -2 -2 -2 -2 -2 -2 -2 -2 -2 -2 -2 -2 -2 -2 -2 -2 -2 -2 -3 -3 -3 -3 -3 -3
-4 -4 -4 -4 -4 -4 -4 -5 -5 -5 -5 -5 -5 -5 -5 -5 -5 -5 -5 -5 -5 -5 -5 -4 -4 -4 -4 -4 -4 -3 -3 -3 -3 -4 -4 -4 -4 -4 -4 -4 -4 -4 -4 -4 -4 -4 -3 -3 -3 -3 -2 -2 -2 -2 -2 -2 -1 -1 -1 -2 -2 -2 -2 -2 -2 -2 -2 -2 -2 -2 -2 -2 -2 -2 -2 -2 -2 -2 -2 -2 -3 -3 -3 -3 -3 -3
-4 -4 -4 -4 -4 -5 -5 -5 -5 -5 -5 -5 -5 -5 -5 -5 -5 -5 -5 -5 -5 -5 -5 -5 -4 -4 -4 -4 -4 -4 -3 -3 -3 -4 -4 -5 -5 -5 -4 -4 -4 -4 -4 -4 -4 -3 -3 -3 -3 -3 -2 -2 -2 -2 -2 -2 -1 -1 -2 -2 -2 -2 -2 -2 -2 -2 -2 -2 -2 -2 -2 -2 -2 -2 -2 -2 -2 -2 -2 -2 -3 -3 -3 -3 -3 -3
-4 -4 -4 -4 -4 -4 -4 -4 -4 -5 -5 -5 -5 -5 -5 -5 -5 -5 -5 -5 -5 -5 -5 -5 -5 -4 -4 -4 -4 -4 -4 -3 -4 -4 -4 -5 -5 -5 -5 -5 -4 -4 -4 -4 -4 -3 -3 -3 -3 -3 -3 -2 -2 -2 -2 -1 -1 -2 -2 -2 -2 -2 -2 -2 -2 -2 -2 -2 -2 -2 -2 -2 -2 -2 -2 -2 -2 -2 -2 -2 -3 -3 -3 -3 -3 -3
-4 -4 -4 -4 -4 -4 -4 -4 -4 -4 -4 -5 -5 -5 -5 -5 -5 -5 -5 -5 -4 -4 -4 -4 -5 -5 -5 -5 -5 -4 -4 -4 -4 -4 -5 -5 -5 -5 -5 -5 -5 -4 -4 -4 -4 -4 -3 -3 -3 -3 -3 -2 -2 -2 -1 -2 -2 -2 -2 -2 -2 -2 -2 -2 -2 -2 -2 -2 -2 -2 -2 -2 -2 -2 -2 -2 -2 -2 -2 -2 -2 -2 -2 -3 -3 -3
-4 -4 -4 -4 -4 -4 -4 -4 -4 -4 -5 -5 -5 -5 -5 -5 -5 -5 -5 -4 -4 -4 -4 -4 -5 -5 -5 -5 -5 -5 -5 -5 -5 -5 -5 -5 -5 -5 -5 -5 -5 -5 -4 -4 -4 -4 -4 -3 -3 -3 -3 -2 -2 -2 -2 -2 -2 -2 -2 -2 -2 -2 -2 -2 -2 -2 -2 -2 -2 -2 -2 -2 -2 -2 -2 -2 -2 -2 -2 -2 -2 -2 -3 -3 -3 -3
-4 -4 -4 -4 -4 -4 -4 -4 -4 -5 -5 -5 -5 -5 -5 -5 -5 -5 -4 -4 -4 -4 -4 -5 -5 -5 -5 -5 -5 -5 -5 -5 -5 -5 -5 -5 -5 -5 -5 -5 -5 -5 -4 -4 -4 -4 -4 -4 -3 -3 -3 -2 -2 -2 -2 -2 -2 -2 -2 -2 -2 -2 -2 -2 -2 -2 -2 -2 -2 -2 -2 -2 -2 -2 -2 -2 -2 -2 -2 -2 -3 -3 -3 -3 -3 -3
-4 -4 -4 -4 -4 -4 -4 -4 -5 -5 -5 -5 -5 -5 -5 -4 -4 -4 -4 -4 -4 -4 -4 -5 -5 -5 -5 -5 -5 -5 -5 -5 -5 -4 -4 -4 -5 -5 -5 -5 -5 -4 -4 -4 -4 -4 -4 -4 -3 -3 -3 -3 -3 -3 -3 -3 -3 -2 -2 -2 -2 -2 -2 -2 -2 -2 -2 -2 -2 -2 -2 -2 -2 -2 -2 -2 -2 -2 -3 -3 -3 -3 -3 -3 -3 -3
-4 -4 -4 -5 -5 -5 -5 -5 -5 -5 -5 -5 -5 -5 -5 -5 -5 -5 -4 -4 -4 -4 -4 -4 -4 -4 -4 -4 -4 -4 -4 -4 -4 -4 -4 -4 -4 -4 -5 -5 -5 -4 -4 -4 -4 -4 -4 -4 -4 -3 -3 -3 -3 -3 -3 -3 -3 -3 -3 -3 -2 -2 -2 -2 -2 -2 -2 -2 -2 -2 -2 -2 -2 -2 -2 -2 -3 -3 -3 -3 -3 -3 -3 -3 -3 -3
-5 -5 -5 -5 -5 -5 -5 -5 -5 -5 -5 -5 -5 -5 -5 -5 -5 -5 -4 -4 -4 -4 -4 -4 -4 -4 -4 -4 -4 -4 -4 -4 -4 -4 -4 -4 -4 -4 -4 -5 -5 -4 -4 -4 -4 -4 -4 -4 -4 -3 -3 -3 -3 -3 -3 -3 -3 -3 -3 -3 -2 -2 -2 -2 -2 -2 -2 -2 -2 -2 -2 -2 -2 -2 -2 -3 -3 -3 -3 -3 -3 -3 -3 -3 -3 -3
-5 -5 -5 -5 -5 -5 -5 -5 -5 -5 -5 -5 -5 -5 -5 -5 -5 -4 -4 -4 -4 -4 -4 -4 -4 -4 -4 -3 -3 -3 -3 -3 -4 -4 -4 -4 -4 -4 -4 -4 -4 -4 -4 -4 -4 -4 -4 -4 -4 -4 -3 -3 -3 -3 -3 -3 -3 -3 -3 -3 -2 -2 -2 -2 -1 -1 -1 -2 -2 -2 -2 -2 -2 -3 -3 -3 -3 -3 -3 -3 -3 -3 -3 -3 -3 -3
-6 -6 -6 -6 -5 -5 -5 -5 -5 -5 -5 -5 -5 -5 -5 -5 -5 -4 -4 -4 -4 -4 -4 -4 -4 -4 -4 -3 -3 -3 -3 -3 -3 -3 -3 -3 -4 -4 -4 -4 -4 -4 -4 -4 -4 -3 -3 -4 -4 -3 -3 -3 -3 -3 -3 -3 -3 -3 -3 -3 -2 -2 -2 -1 -1 -1 -2 -2 -2 -2 -2 -2 -3 -3 -3 -3 -3 -3 -3 -3 -3 -3 -3 -3 -3 -3
-6 -6 -6 -6 -5 -5 -5 -5 -5 -5 -5 -5 -5 -5 -5 -5 -5 -5 -5 -4 -4 -4 -4 -4 -5 -4 -4 -3 -3 -3 -3 -3 -3 -3 -3 -3 -3 -4 -4 -4 -4 -4 -4 -3 -3 -3 -3 -3 -3 -3 -3 -3 -3 -3 -3 -3 -3 -3 -2 -2 -2 -2 -2 -2 -2 -2 -2 -2 -2 -2 -2 -3 -3 -3 -4 -4 -4 -4 -3 -3 -3 -3 -3 -3 -3 -3
-6 -6 -6 -6 -6 -6 -6 -6 -5 -5 -5 -5 -5 -5 -5 -5 -5 -5 -5 -5 -4 -4 -4 -5 -5 -4 -4 -3 -3 -3 -3 -3 -3 -3 -3 -3 -3 -3 -4 -4 -4 -4 -4 -4 -4 -4 -4 -4 -3 -3 -3 -3 -3 -3 -3 -3 -3 -3 -2 -2 -2 -2 -2 -2 -2 -2 -2 -2 -2 -2 -3 -3 -3 -4 -4 -4 -4 -4 -3 -3 -3 -3 -3 -3 -3 -3
-7 -7 -6 -6 -6 -6 -6 -5 -5 -5 -5 -5 -5 -5 -5 -5 -5 -5 -5 -5 -5 -4 -5 -5 -5 -4 -4 -4 -3 -3 -3 -3 -3 -3 -3 -3 -3 -3 -3 -4 -4 -4 -4 -4 -4 -4 -4 -4 -4 -3 -3 -3 -3 -3 -3 -3 -2 -2 -2 -2 -2 -2 -2 -2 -2 -2 -2 -2 -2 -3 -3 -3 -4 -4 -4 -4 -4 -3 -3 -3 -3 -3 -3 -3 -3 -3
-7 -7 -7 -7 -6 -6 -6 -6 -5 -5 -5 -5 -5 -5 -5 -5 -5 -5 -5 -5 -5 -5 -5 -5 -5 -4 -4 -4 -4 -3 -3 -3 -3 -3 -3 -3 -3 -3 -3 -4 -4 -4 -4 -4 -4 -4 -4 -4 -4 -4 -3 -3 -3 -3 -3 -2 -2 -2 -2 -2 -2 -2 -2 -2 -2 -2 -2 -2 -3 -3 -3 -4 -4 -4 -4 -4 -4 -4 -3 -3 -3 -3 -3 -3 -3 -3
-7 -7 -7 -7 -7 -7 -6 -6 -6 -5 -5 -5 -5 -5 -5 -5 -5 -5 -5 -5 -5 -5 -5 -5 -5 -4 -4 -4 -4 -4 -3 -3 -3 -3 -3 -3 -4 -4 -4 -4 -4 -4 -4 -4 -4 -4 -3 -3 -3 -3 -3 -3 -3 -3 -2 -2 -2 -2 -2 -2 -2 -2 -2 -2 -2 -2 -2 -3 -3 -3 -4 -4 -4 -4 -4 -4 -4 -4 -3 -3 -3 -3 -3 -3 -3 -3
-7 -7 -7 -7 -7 -7 -7 -6 -6 -6 -6 -5 -5 -5 -5 -5 -5 -5 -5 -5 -5 -5 -5 -5 -5 -5 -4 -4 -4 -4 -4 -4 -4 -4 -4 -4 -4 -4 -4 -4 -4 -4 -4 -4 -3 -3 -3 -3 -3 -3 -3 -3 -3 -3 -3 -2 -2 -2 -2 -2 -2 -2 -2 -2 -2 -3 -3 -3 -3 -4 -4 -4 -4 -4 -4 -4 -4 -4 -3 -3 -3 -3 -3 -3 -3 -3
-7 -7 -7 -7 -7 -7 -7 -7 -6 -6 -6 -6 -5 -5 -5 -5 -5 -5 -5 -5 -5 -5 -5 -5 -5 -5 -4 -4 -4 -4 -4 -4 -4 -4 -4 -4 -4 -4 -4 -4 -4 -4 -4 -3 -3 -3 -3 -3 -3 -2 -2 -2 -3 -3 -3 -2 -2 -2 -2 -2 -2 -2 -2 -3 -3 -3 -3 -4 -4 -4 -4 -4 -4 -4 -4 -4 -4 -4 -3 -3 -3 -3 -3 -3 -3 -3
-7 -7 -7 -7 -7 -7 -7 -7 -7 -6 -6 -6 -6 -6 -6 -5 -5 -5 -5 -5 -5 -5 -5 -5 -5 -5 -5 -4 -4 -4 -4 -4 -4 -4 -4 -4 -4 -4 -4 -4 -4 -4 -4 -3 -3 -3 -3 -3 -2 -2 -2 -2 -2 -2 -2 -2 -2 -3 -3 -3 -3 -3 -3 -3 -3 -3 -4 -4 -4 -4 -4 -4 -4 -4 -4 -4 -4 -4 -4 -4 -3 -3 -3 -3 -3 -3
Height
795 796 797 798 799 800 801 802 802 803 804 804 805 805 806 806 807 808 808 809 809 810 810 810 811 811 811 811 811 811 811 811 811 812 812 812 812 811 811 811 811 811 810 809 809 808 807 807 806 806 806 805 805 804 804 803 803 802 802 801 801 800 800 799 799 798 797 797 796 796 795 795 794 793 792 792 791 791 791 791 790 790 789 789 788 788
795 796 797 798 799 800 801 802 802 803 804 804 804 804 805 806 806 807 808 808 809 809 809 809 810 810 810 810 810 810 811 811 811 811 811 811 811 811 810 810 810 809 809 808 807 806 806 806 805 804 804 803 803 803 802 802 801 801 800 800 799 798 798 797 796 796 796 795 794 794 793 792 792 791 791 791 790 790 790 789 789 788 788 787 787 786
795 796 797 798 799 800 801 801 802 802 803 803 803 804 805 805 806 806 807 807 808 808 808 809 809 809 810 810 810 810 810 810 810 810 810 810 809 809 809 809 808 808 807 806 806 805 805 804 804 803 802 802 801 801 801 800 799 799 798 798 797 796 796 795 795 794 794 793 792 792 791 791 790 790 790 789 789 789 788 788 787 787 787 786 786 785
794 795 796 797 798 799 800 800 800 801 801 801 802 803 804 805 806 806 806 807 807 808 808 808 809 809 809 809 809 809 809 809 809 809 809 808 808 808 807 807 807 806 806 805 805 804 803 803 802 801 801 801 800 799 799 798 798 797 796 796 795 795 794 793 793 792 792 791 791 790 790 789 789 788 788 788 787 787 787 786 786 786 785 785 784 783
794 795 796 796 797 798 798 799 799 800 801 801 802 803 804 804 805 806 806 806 807 807 807 808 808 808 808 808 808 808 808 808 808 808 807 807 807 806 806 806 805 805 804 804 803 803 802 801 801 800 800 799 798 798 797 797 796 796 795 794 794 793 792 792 791 791 790 789 789 788 788 788 787 787 787 786 786 786 786 785 785 784 784 783 783 782
794 794 795 796 797 797 798 798 799 800 801 801 802 803 803 804 805 805 806 806 807 807 807 807 808 808 808 808 807 807 807 807 807 806 806 806 806 805 805 804 804 804 803 803 802 801 801 800 799 799 798 797 797 796 796 795 795 794 793 793 792 791 791 790 789 789 788 788 787 787 787 786 786 786 785 785 785 785 784 784 783 782 782 781 781 780
793 794 795 796 797 797 798 798 799 800 801 801 802 803 803 804 804 805 806 806 806 807 807 807 807 807 807 807 806 806 806 806 806 805 805 805 804 804 804 803 803 803 802 801 801 800 799 799 798 797 796 796 795 795 794 794 793 792 792 791 790 790 789 788 788 787 787 787 786 786 786 785 785 784 784 784 783 783 782 782 781 781 780 780 779 779
792 794 795 796 797 797 798 799 799 800 801 801 802 803 803 804 804 805 805 806 806 806 807 807 807 807 807 806 806 806 806 805 805 804 804 804 803 803 803 802 802 801 801 800 800 799 798 797 796 796 795 794 794 793 793 792 791 791 790 789 788 788 787 787 786 786 786 786 785 785 784 784 783 783 783 782 782 781 781 781 780 779 779 778 777 777
792 794 796 796 797 798 799 799 800 800 801 802 803 803 804 804 805 805 806 806 806 806 806 807 807 807 807 806 806 806 805 805 805 804 804 804 803 802 802 801 801 801 800 799 798 797 796 796 795 794 794 793 792 792 791 791 790 789 788 787 787 786 786 786 786 785 785 784 784 784 783 783 782 782 781 781 780 780 779 779 778 778 777 776 776 775
792 794 795 796 797 798 799 800 800 801 801 802 803 803 804 805 805 806 806 806 806 806 806 806 807 807 806 806 806 805 805 804 804 804 803 803 802 802 801 800 800 799 798 797 796 796 795 795 794 793 792 792 791 791 790 789 788 787 787 786 786 785 785 785 784 784 784 783 783 782 782 781 781 781 780 780 779 778 778 777 776 776 775 775 774 773
792 794 795 796 797 798 799 799 800 801 801 802 803 803 804 804 805 806 806 806 806 806 806 806 806 806 806 806 805 805 804 804 803 803 802 801 801 800 799 799 798 797 796 796 795 794 794 793 792 792 791 791 790 789 788 787 787 786 786 785 785 784 784 784 783 783 783 782 782 781 781 780 780 779 779 778 778 777 776 776 775 774 774 773 772 771
792 793 795 796 797 798 799 799 800 800 801 802 803 803 804 804 804 805 806 806 806 806 806 806 806 806 805 805 805 804 804 803 803 802 801 801 800 799 798 798 797 796 796 795 794 793 792 792 791 791 790 789 788 788 787 786 786 785 785 784 784 784 783 783 782 782 781 781 781 780 780 779 779 778 778 777 776 776 775 774 773 773 772 771 770 770
792 793 794 796 797 797 798 799 800 801 801 802 803 803 803 803 803 804 805 805 806 806 806 806 805 805 805 804 804 804 803 803 802 801 801 800 800 799 798 797 796 796 795 794 793 792 792 791 790 789 789 788 787 786 786 785 785 784 784 784 783 783 782 782 781 781 781 780 780 779 779 778 777 777 776 776 775 774 774 773 772 771 770 769 769 768
791 793 794 795 796 797 798 799 800 800 801 801 802 802 803 803 803 804 804 805 805 805 805 805 805 805 804 803 803 803 803 802 801 801 800 800 799 798 797 796 796 795 794 793 793 792 791 790 790 789 788 787 786 786 785 784 784 784 783 783 782 782 781 781 781 780 780 779 779 778 777 777 776 776 775 774 774 773 772 771 771 770 769 768 767 766
791 792 793 794 795 796 797 798 799 800 800 801 801 801 802 803 803 804 805 805 805 805 805 805 804 804 804 803 802 802 802 802 801 801 800 799 798 797 796 796 795 794 793 793 792 791 790 790 789 788 787 787 786 785 784 784 783 783 782 782 781 781 781 780 780 779 779 778 777 777 776 776 775 774 774 773 772 771 771 770 769 768 767 766 765 764
790 791 792 793 795 796 796 797 798 799 800 800 801 801 802 803 804 804 805 805 805 805 805 804 804 803 803 802 802 801 801 801 801 800 799 798 797 797 796 795 794 793 793 792 791 791 790 789 788 788 787 786 785 784 783 783 782 782 781 781 781 780 780 779 779 778 777 777 776 776 775 775 774 773 772 771 771 770 769 768 767 766 765 764 763 762
790 791 792 793 794 795 796 797 798 799 799 800 801 802 802 803 804 804 804 805 805 805 805 804 804 803 802 802 801 801 801 801 801 800 799 797 797 796 795 794 793 793 792 791 791 790 789 788 787 787 786 785 784 783 782 782 781 781 781 780 780 779 779 778 778 777 776 776 776 775 774 773 773 772 771 770 769 768 767 766 766 765 764 763 762 761
790 791 792 793 794 795 796 797 798 799 799 800 801 801 802 803 803 803 804 804 804 804 804 804 804 803 803 802 802 801 801 801 800 799 798 797 796 795 794 793 793 792 791 791 790 789 788 787 786 786 785 784 783 782 782 781 781 780 780 779 779 778 778 777 777 776 776 775 774 774 773 772 771 770 770 769 768 767 766 765 764 763 762 761 760 759
790 791 792 793 794 795 796 797 798 799 799 800 801 801 802 802 803 803 804 804 804 804 804 804 803 803 803 802 802 802 801 800 800 799 798 796 795 795 794 793 792 791 791 790 789 788 787 786 786 785 784 783 782 782 781 781 780 780 779 779 778 777 777 776 776 775 774 774 773 772 771 771 770 769 768 767 766 765 764 763 762 761 761 759 758 757
790 791 792 793 794 795 796 797 798 798 799 800 800 801 801 802 803 803 803 803 803 803 803 803 803 803 802 802 802 801 801 800 799 798 797 796 795 794 793 792 791 791 790 789 788 787 787 786 785 784 783 782 782 781 781 780 780 779 778 778 777 776 776 775 775 774 773 772 772 771 770 769 768 767 766 766 765 764 763 762 761 760 759 758 757 756
790 791 792 793 794 795 796 797 797 798 798 799 800 801 801 802 802 802 803 803 803 803 803 803 802 802 802 802 801 801 800 799 799 798 797 796 794 793 793 792 791 791 789 788 788 787 786 785 784 783 782 781 781 781 780 779 779 778 777 777 776 776 775 774 774 773 772 771 770 770 769 768 767 766 765 764 763 762 761 761 760 758 757 756 756 754
790 791 792 793 794 795 796 796 797 797 798 799 799 800 801 801 801 802 802 802 802 802 802 802 802 801 801 801 801 800 799 798 798 798 797 795 794 793 792 791 791 790 789 788 787 786 785 784 783 782 782 781 780 780 779 779 778 777 777 776 775 775 774 773 772 771 771 770 769 768 767 766 766 765 764 763 762 761 760 759 758 757 756 755 754 753
790 791 792 793 794 795 796 796 797 797 798 798 799 800 800 800 801 801 801 801 801 801 801 801 801 801 800 800 800 799 798 798 797 797 797 795 794 793 792 791 791 790 789 787 786 786 785 784 783 782 781 780 780 779 778 778 777 776 776 775 774 773 773 772 771 770 770 769 768 767 766 765 764 763 762 761 761 760 759 758 757 756 755 754 752 751
790 791 792 793 794 795 795 796 796 797 797 798 798 799 799 799 800 800 800 800 800 800 800 800 800 800 799 799 799 799 798 797 797 797 796 796 794 793 792 791 790 789 788 787 786 785 784 783 782 781 780 780 779 778 778 777 776 776 775 774 773 772 771 771 770 769 768 767 766 766 765 764 763 762 761 760 759 758 757 756 755 754 753 752 751 749
791 792 792 793 794 794 795 796 796 797 797 797 798 798 798 798 799 799 799 799 799 800 800 799 799 799 799 799 799 798 798 797 796 796 796 796 794 793 792 791 790 789 788 787 786 785 784 782 781 781 780 779 779 778 777 776 775 774 774 773 772 771 771 770 769 768 767 766 765 764 764 763 762 761 760 759 758 757 756 755 754 753 751 750 749 747
791 792 793 793 794 794 795 795 796 796 796 797 797 798 798 798 798 798 799 799 799 799 799 799 799 799 798 798 798 798 797 796 796 796 796 796 794 793 792 791 791 789 788 786 785 784 783 781 781 780 779 779 778 777 776 775 774 773 772 772 771 770 769 769 768 767 766 765 764 763 762 761 761 760 759 758 757 756 755 754 752 751 750 748 747 745
792 792 793 793 794 794 795 795 796 796 796 796 797 797 797 798 798 798 799 799 799 799 799 799 798 798 798 798 798 797 797 797 796 796 796 796 795 793 792 791 791 789 788 786 785 784 782 781 780 779 779 778 777 776 775 774 773 772 772 771 770 769 768 767 766 766 765 764 763 762 761 760 759 758 757 756 756 754 753 752 751 750 748 746 745 743
792 792 793 793 794 794 795 795 796 796 796 796 796 796 796 797 798 798 798 798 798 798 799 798 798 798 798 798 797 797 797 797 796 796 796 795 794 793 792 791 791 790 788 786 784 783 782 781 780 779 778 777 776 775 774 773 773 772 771 770 769 768 767 766 766 765 764 763 762 761 760 759 758 757 756 755 754 753 752 751 749 748 746 745 744 742
791 792 792 793 793 794 794 795 795 796 796 796 796 796 796 797 797 798 798 798 798 798 798 798 798 798 798 798 797 797 796 796 796 795 795 795 794 793 792 791 791 790 789 786 784 782 781 781 780 779 778 777 776 775 774 773 772 771 770 769 768 767 766 766 765 764 762 761 761 759 758 757 756 756 755 754 752 751 750 749 748 747 745 744 742 741
792 792 793 793 793 794 794 795 795 795 795 795 795 796 796 796 797 797 797 797 798 798 798 798 798 798 798 798 797 796 796 796 795 795 795 795 794 793 792 792 791 791 790 788 785 782 781 780 780 779 778 777 776 775 773 772 771 770 769 768 767 766 766 765 763 762 761 760 759 758 757 756 755 754 753 752 751 750 749 748 747 746 744 743 741 740
792 793 793 793 794 794 794 794 795 795 795 795 795 795 796 796 796 797 797 797 797 798 798 798 798 798 798 798 797 796 796 796 795 794 794 795 794 793 793 792 791 791 791 790 788 786 782 779 778 778 778 777 776 774 773 772 771 770 769 768 766 766 765 763 762 761 760 759 758 757 756 755 754 753 752 751 750 749 748 747 746 745 743 742 740 739
792 792 793 793 793 794 794 794 794 794 795 795 795 795 796 796 796 796 796 797 797 797 798 798 798 798 798 798 797 797 796 796 795 795 794 794 794 793 793 792 792 791 791 791 791 789 786 781 779 777 777 776 775 774 773 772 771 770 768 767 766 765 763 762 761 760 759 758 757 756 755 753 752 751 751 749 748 748 747 746 745 744 743 741 739 737
792 792 793 793 793 793 794 794 794 794 795 795 795 796 796 796 796 796 796 796 796 797 797 797 797 797 797 797 797 797 796 796 795 795 794 794 794 793 792 792 792 791 791 790 790 789 788 785 781 779 777 776 775 773 772 771 770 769 768 767 765 764 762 761 761 759 758 757 756 754 753 752 751 750 749 748 747 746 746 745 744 743 741 740 738 736
792 793 793 793 793 794 794 794 794 795 795 795 796 796 796 796 796 796 796 796 796 796 796 797 797 797 797 797 796 796 796 795 795 794 794 794 793 793 792 792 791 791 791 790 789 788 787 785 783 780 777 775 774 773 772 771 769 768 767 766 765 763 762 761 760 758 757 756 755 753 752 751 750 749 748 747 746 745 744 743 742 741 740 739 737 736
792 793 793 794 794 794 794 794 795 795 795 795 796 796 796 796 796 796 796 796 796 796 796 796 796 796 796 796 796 795 795 795 794 794 793 793 793 792 792 791 791 791 790 790 789 787 786 784 783 781 779 776 773 772 771 770 769 768 766 766 764 763 761 760 759 758 756 755 754 753 751 750 749 748 746 746 745 743 742 741 740 739 738 737 736 735
793 793 793 794 794 794 794 795 795 795 795 795 795 795 795 795 795 795 795 795 795 795 795 795 795 795 795 795 795 795 794 794 793 793 793 793 792 792 791 791 791 791 790 789 788 787 786 784 782 781 779 776 774 771 770 769 768 767 766 765 763 762 761 760 759 757 756 755 753 752 751 749 748 747 745 744 743 742 741 740 738 737 736 736 735 734
793 793 794 794 794 794 794 795 795 795 795 795 795 795 795 795 795 795 795 795 795 794 794 794 794 794 794 794 794 793 793 793 792 792 792 792 792 792 791 791 790 790 790 789 788 786 785 784 781 780 779 777 774 772 770 768 767 766 765 764 762 761 760 759 758 757 756 754 753 751 750 749 747 746 744 743 741 740 739 738 737 736 735 734 733 732
793 793 793 794 794 794 794 795 795 795 795 795 795 795 795 795 795 795 795 795 794 794 794 794 793 793 793 792 792 792 792 791 791 791 791 791 791 791 791 790 789 789 789 788 787 786 785 784 781 779 777 776 774 772 771 769 767 766 764 763 762 761 760 759 757 756 755 754 752 751 750 748 746 745 743 741 740 739 737 736 735 734 733 731 730 729
793 793 793 794 794 794 794 795 795 795 795 795 795 795 795 795 795 794 794 794 794 794 794 793 793 793 792 792 791 791 791 791 791 791 791 790 790 790 790 789 788 788 787 787 786 786 785 783 782 780 777 775 773 771 770 769 768 766 764 762 761 759 759 758 757 756 755 753 752 750 749 747 746 744 743 741 740 738 736 735 734 732 731 730 728 727
793 793 793 794 794 794 794 794 795 795 795 794 794 794 794 794 794 794 794 794 794 794 793 793 793 792 792 791 791 791 791 790 790 790 790 789 789 789 789 788 788 787 786 786 785 785 784 782 781 779 778 776 773 771 770 768 767 766 764 762 760 758 757 757 756 755 754 753 751 750 748 747 745 744 742 741 740 738 736 735 733 732 731 730 728 726
793 793 794 794 794 794 794 794 794 794 794 794 794 794 794 794 794 794 794 794 794 794 793 793 793 792 792 791 791 791 790 790 790 789 789 789 789 788 788 787 786 786 786 785 784 783 782 781 780 778 777 775 773 771 769 768 767 766 765 763 761 758 756 756 755 754 753 752 751 750 748 746 745 743 742 740 739 738 736 735 733 731 730 729 728 726
793 793 794 794 794 794 794 794 794 794 794 794 794 794 794 794 794 794 794 794 794 794 793 793 793 792 792 792 791 791 791 790 789 789 789 788 788 787 787 786 786 785 784 784 783 782 781 780 779 777 776 774 773 771 768 767 766 765 764 762 760 758 756 755 754 753 752 751 750 749 748 746 745 743 741 740 738 737 736 734 733 731 730 729 727 726
793 793 793 793 793 793 793 793 793 793 794 794 794 794 794 794 794 794 794 794 794 794 793 793 793 792 792 791 791 791 791 790 789 789 788 787 787 786 786 785 785 784 784 783 781 780 779 779 777 776 775 774 772 770 768 766 765 764 763 761 760 758 756 753 752 752 751 751 749 748 747 746 744 743 741 739 737 736 734 733 732 731 730 728 726 725
793 793 793 793 793 793 793 793 793 793 793 793 794 794 793 793 793 793 794 794 793 793 793 793 792 792 792 791 791 791 790 790 789 788 788 787 786 786 785 785 784 784 783 782 781 779 778 777 776 775 774 773 771 770 767 766 764 763 761 760 759 758 756 754 752 751 751 749 748 748 747 746 744 742 740 738 736 735 733 732 731 729 728 727 726 724
792 792 792 792 792 793 793 793 793 793 793 793 793 793 793 793 793 793 793 793 793 793 793 792 792 792 791 791 791 790 789 789 788 788 787 787 786 785 785 784 783 782 782 781 780 779 777 776 774 773 772 771 770 768 767 765 763 761 760 759 758 757 755 754 752 751 750 749 747 747 746 745 743 741 739 737 735 734 732 731 729 728 726 726 724 723
792 792 792 792 792 792 792 792 792 792 792 793 793 793 793 793 793 793 793 793 792 792 792 792 792 791 791 790 790 789 789 788 787 787 786 786 785 785 784 783 782 781 781 780 779 777 776 775 774 772 771 769 768 767 766 764 762 761 759 758 757 756 754 753 752 751 750 748 747 746 745 744 743 741 739 736 734 732 731 730 729 727 726 724 723 721
792 792 792 792 792 792 792 792 792 792 792 793 793 793 792 792 792 792 792 792 792 792 791 791 791 791 790 790 789 789 788 787 786 786 786 785 784 783 783 782 781 780 779 778 777 776 775 774 772 771 770 768 766 765 764 763 762 760 759 757 756 755 753 752 751 750 749 748 747 745 744 743 742 740 738 736 733 731 729 728 727 726 725 723 721 720
791 791 791 791 791 791 791 792 792 792 792 792 792 792 792 792 792 792 792 792 791 791 791 791 791 790 790 789 788 788 787 787 786 785 784 784 783 782 781 781 780 779 778 777 776 774 773 772 771 770 769 768 766 764 762 761 761 760 758 757 756 754 752 751 750 749 748 747 746 745 744 743 741 740 737 735 732 730 728 726 726 725 724 722 721 719
791 791 791 791 791 791 791 791 792 792 792 792 792 792 792 791 791 791 791 791 791 791 791 790 790 789 789 788 788 787 786 786 785 785 784 783 782 781 781 780 778 777 776 775 774 773 771 770 769 768 767 766 765 763 761 760 759 759 757 756 755 754 752 751 749 748 747 746 745 744 743 742 741 739 737 735 732 729 727 725 724 723 722 721 720 718
791 791 791 791 791 791 791 791 791 791 791 791 791 791 791 791 791 791 791 791 790 790 790 790 789 789 788 787 787 786 786 785 785 784 783 782 781 781 780 779 777 776 775 774 772 771 770 768 767 766 765 765 764 763 761 760 759 757 756 756 755 753 752 750 749 747 746 745 744 742 741 741 739 738 736 735 731 729 726 724 722 721 721 720 718 716
791 791 791 791 791 791 791 791 791 791 791 791 791 791 791 791 791 791 790 790 790 790 789 789 788 788 787 787 786 786 785 785 784 783 782 781 781 780 779 778 777 776 774 773 771 770 769 767 766 764 763 763 763 762 761 760 758 757 756 755 754 753 751 750 748 747 746 745 743 742 740 739 738 736 736 734 731 728 725 723 721 720 719 718 717 715
Wind_Speed
14 15 17 17 17 16 15 16 16 16 15 15 14 14 13 12 11 11 10 8 7 6 6 7 8 9 9 10 10 11 11 12 13 14 15 15 16 16 16 15 15 15 15 16 16 17 17 18 18 19 19 19 19 18 18 18 18 18 18 18 18 18 18 18 18 18 18 18 18 18 19 19 19 19 20 20 20 21 21 21 22 22 22 22 22 22
14 16 17 17 17 16 14 13 13 13 12 12 13 12 12 11 10 9 8 7 7 7 7 7 8 9 9 10 10 11 11 12 13 14 15 16 16 16 15 15 15 15 16 16 17 17 18 18 18 18 19 19 19 18 18 18 18 18 18 18 18 18 19 18 18 18 18 18 18 18 19 19 19 20 20 20 20 21 21 21 21 21 21 21 22 22
14 15 16 16 15 15 14 12 11 12 12 12 12 11 10 9 8 7 6 6 7 7 7 8 8 9 10 11 11 12 12 13 14 15 15 16 16 15 15 15 15 15 16 16 17 17 18 18 18 18 18 18 18 18 18 18 18 18 18 18 18 18 18 18 18 18 18 18 18 19 19 20 20 20 20 20 20 20 20 21 21 21 21 21 22 22
14 15 16 16 16 15 15 14 13 13 14 13 11 10 9 8 7 7 6 6 6 7 8 8 9 10 11 12 13 13 14 14 15 15 15 15 15 15 15 15 15 15 16 16 17 17 18 18 18 18 18 18 18 18 18 18 18 18 18 18 18 18 18 18 18 18 18 19 19 19 20 20 20 20 20 20 20 20 20 20 21 21 21 21 22 22
13 14 15 15 15 15 15 15 15 14 13 11 10 8 7 7 7 7 7 7 7 8 9 9 10 11 12 13 14 15 15 15 15 15 15 14 14 14 14 14 15 15 15 16 16 17 18 18 18 18 18 18 18 18 18 18 18 18 18 18 18 18 18 18 18 19 19 19 20 20 20 19 19 19 19 19 19 20 20 20 21 21 21 21 22 22
12 13 14 14 14 13 13 14 14 13 12 10 9 8 7 7 7 7 7 8 8 9 9 10 11 11 13 14 15 15 15 14 14 14 13 13 13 13 13 13 14 14 15 16 16 17 17 18 18 18 18 18 18 18 18 18 18 18 18 18 18 18 19 19 19 20 20 20 19 19 18 18 18 18 18 19 19 20 20 20 21 21 21 21 22 22
11 12 13 13 13 13 12 12 12 12 11 10 8 7 7 7 7 7 8 8 9 9 10 11 11 12 13 14 14 14 13 13 13 12 12 12 12 12 12 13 13 14 15 16 16 17 17 17 17 17 17 17 17 17 17 17 17 18 18 18 19 19 20 20 20 19 19 18 18 17 17 18 18 18 19 19 19 20 20 21 21 21 21 22 22 22
11 11 12 11 11 11 10 11 11 11 10 8 6 5 4 5 6 7 8 9 9 10 10 11 12 12 11 11 12 12 12 11 10 10 10 11 11 12 12 13 14 14 15 15 16 16 16 16 16 16 16 16 16 17 17 17 17 18 19 19 20 20 20 19 18 18 17 17 17 17 17 18 18 18 19 19 20 20 20 21 21 21 21 21 21 21
11 10 10 9 9 9 8 8 9 10 9 7 5 2 1 1 3 4 6 7 8 9 10 9 9 8 8 8 9 10 10 9 9 9 9 10 11 12 13 14 14 14 14 14 14 14 14 14 14 14 15 15 15 16 16 17 18 18 19 19 19 18 17 17 16 16 16 16 16 17 17 18 18 18 19 19 19 20 20 20 20 20 21 21 21 21
10 9 8 8 8 7 6 6 7 9 8 7 5 4 2 1 1 2 3 3 5 7 8 8 7 7 7 8 9 9 10 10 9 9 10 11 11 12 13 13 13 14 14 14 13 13 13 13 13 13 13 14 14 15 15 16 17 17 17 17 16 15 15 15 15 15 16 16 16 17 17 17 18 18 18 19 19 19 19 19 20 20 20 20 20 21
9 9 8 8 7 7 6 7 7 8 8 6 4 3 3 3 2 2 2 3 3 4 5 6 7 8 8 7 7 8 9 9 10 11 11 12 13 13 13 14 14 14 14 14 14 13 13 13 13 13 13 13 14 14 15 15 15 15 14 14 14 14 14 14 15 15 15 16 16 16 17 17 17 18 18 18 18 19 19 19 19 19 20 20 21 21
8 8 8 8 8 7 6 7 8 8 7 5 3 3 2 4 4 3 2 3 3 4 5 6 8 9 8 7 7 7 8 9 10 11 12 12 11 12 12 13 14 14 15 14 14 13 13 14 14 14 14 14 14 14 14 14 13 13 13 13 13 14 14 14 15 15 15 16 16 16 16 17 17 17 18 18 18 18 19 19 19 20 20 21 21 21
8 8 8 8 7 6 6 6 6 6 5 4 3 3 2 2 4 4 3 4 4 5 6 7 7 8 8 8 7 7 8 9 11 11 11 10 8 8 10 11 13 14 14 13 12 12 13 14 14 14 14 14 13 13 13 12 12 12 12 13 13 13 14 14 15 15 15 15 15 16 16 16 17 17 17 18 18 19 19 19 20 20 21 21 21 22
8 8 8 7 6 6 6 6 6 5 5 4 4 3 3 3 4 4 3 3 4 6 7 7 6 6 6 7 7 7 8 10 12 12 11 9 8 8 10 11 12 13 14 12 10 10 12 13 13 13 13 13 12 12 12 12 11 12 12 13 13 14 14 14 15 15 15 15 15 16 16 16 17 17 17 18 18 19 19 20 20 20 21 21 21 22
8 8 8 7 6 6 6 6 6 5 5 4 4 4 4 3 3 2 2 2 3 5 6 6 5 4 4 6 7 8 9 10 11 12 11 9 9 9 10 11 12 13 13 12 10 10 12 12 12 12 12 11 11 11 11 11 11 11 12 13 13 14 14 15 15 15 15 15 15 16 16 16 17 17 18 18 19 19 20 20 20 20 21 21 21 22
8 8 7 7 7 6 6 6 5 5 4 5 5 4 2 1 0 1 1 2 3 4 4 5 4 3 3 5 7 9 10 10 10 11 11 10 9 8 9 10 11 12 12 11 10 10 11 11 12 12 11 11 12 12 11 11 11 11 12 13 14 14 14 15 15 15 15 15 16 16 16 17 17 18 18 19 19 20 20 20 21 21 21 21 21 22
7 7 7 7 6 6 6 6 5 5 5 5 4 4 3 2 1 0 1 2 2 3 3 3 3 3 2 2 4 8 11 10 9 11 11 11 9 8 9 9 10 11 11 11 10 10 10 11 11 12 12 12 12 11 10 10 11 11 12 13 14 14 15 15 15 15 15 16 16 17 17 17 18 19 19 19 20 20 20 21 21 21 21 21 22 22
6 6 6 6 6 6 6 6 6 5 5 4 4 3 3 2 1 1 1 1 2 2 2 3 3 3 3 2 2 5 10 10 9 10 10 10 9 8 8 9 10 11 11 11 11 10 10 11 12 13 13 13 12 11 10 11 11 12 13 13 14 14 15 15 15 16 16 16 17 17 18 18 19 19 19 20 20 20 20 20 21 21 21 22 22 22
6 6 6 6 6 6 7 6 5 5 5 4 4 3 2 1 1 0 1 1 2 2 2 2 3 3 3 3 3 5 8 9 9 9 9 9 9 8 7 8 9 11 11 11 10 10 11 12 14 15 14 13 12 11 11 11 12 13 13 14 14 14 15 15 16 16 17 17 17 18 18 19 19 19 19 20 20 20 20 20 21 21 21 22 22 22
7 6 6 6 6 7 6 6 5 6 5 5 4 3 3 2 2 2 2 2 2 2 2 3 3 3 3 4 5 6 8 9 9 8 8 9 9 8 7 7 9 11 11 11 11 10 11 12 14 15 14 13 12 11 12 13 13 14 14 15 15 15 15 16 16 17 17 18 18 18 19 19 19 19 19 20 20 20 20 20 21 21 22 22 22 22
7 6 6 6 6 6 6 6 6 6 6 5 4 4 3 2 2 2 2 1 2 2 2 3 3 3 4 4 6 7 9 9 8 7 7 8 8 7 6 7 9 10 11 11 10 10 11 13 14 14 13 13 13 13 13 14 15 15 16 15 16 16 16 17 17 17 18 18 18 19 19 19 19 19 19 19 20 20 20 21 21 21 22 22 22 22
8 8 7 7 7 7 7 7 7 6 6 5 4 3 2 2 2 1 1 1 1 2 2 3 4 4 5 6 7 8 8 8 7 6 6 7 7 7 6 7 9 10 10 11 11 11 12 13 14 14 14 14 14 14 15 16 17 17 17 17 16 17 17 17 18 18 18 18 18 18 19 19 19 19 19 20 20 20 20 21 21 22 22 22 22 22
10 10 9 9 8 8 8 8 7 6 5 4 3 3 3 2 1 1 1 1 2 2 3 4 5 6 6 7 6 6 7 7 7 5 4 5 6 7 7 8 9 9 10 11 12 12 13 14 14 14 14 14 15 15 16 17 18 18 18 17 17 17 17 18 18 18 18 18 18 18 18 19 19 19 19 20 20 20 20 21 21 21 22 22 22 23
12 11 11 10 9 9 8 7 6 5 4 3 3 3 3 2 2 2 2 2 2 3 4 5 6 6 5 4 4 4 5 7 7 5 3 4 6 8 9 9 9 10 11 12 12 13 14 14 14 14 14 14 14 15 16 17 18 19 18 18 18 18 18 18 18 18 18 18 18 18 18 19 19 19 19 20 20 20 21 21 21 21 22 22 23 23
11 11 10 9 9 8 8 6 5 4 3 2 2 1 1 0 1 1 1 2 2 3 4 4 4 3 3 2 2 2 3 6 6 5 3 5 7 9 9 9 9 10 11 12 13 14 14 14 14 14 13 12 13 14 16 18 19 19 19 19 19 18 18 18 18 18 18 18 18 18 18 18 19 19 19 20 20 20 20 21 21 21 22 22 23 24
10 10 9 8 8 7 7 6 5 3 2 2 2 1 0 1 1 0 0 1 2 3 3 3 3 2 2 2 2 2 2 4 5 5 4 5 7 9 9 8 9 10 12 13 14 14 15 15 14 13 12 12 13 15 17 19 19 19 19 19 19 18 18 18 18 17 18 18 18 18 18 18 19 19 19 19 19 20 20 20 21 21 22 23 23 23
10 9 8 8 7 7 7 6 5 4 3 3 2 1 0 1 0 1 1 0 1 2 2 2 2 2 2 2 3 3 2 2 3 4 5 5 6 7 8 8 9 11 13 14 14 15 15 14 14 12 12 12 14 16 18 19 19 19 18 18 18 18 18 18 18 17 18 18 18 18 18 18 18 18 19 19 19 19 20 20 21 21 22 22 22 21
10 9 9 8 7 7 7 7 6 6 5 3 2 1 1 1 0 1 0 0 1 1 1 2 2 3 3 3 4 4 3 2 2 3 6 6 6 6 7 8 10 11 13 14 15 15 14 13 11 11 10 12 14 17 18 18 18 17 17 17 17 17 17 17 17 18 18 18 18 18 18 18 18 18 18 19 19 19 19 20 20 21 21 20 19 18
7 7 6 6 6 5 6 6 6 6 5 3 2 1 0 1 1 1 1 0 1 1 1 1 2 2 3 4 5 4 3 2 2 4 7 6 5 6 7 8 10 11 13 14 15 14 12 10 9 9 9 12 15 17 18 18 17 17 16 16 16 16 16 17 18 18 18 18 18 18 18 18 18 18 18 19 19 19 19 19 20 20 19 19 18 18
4 4 3 3 3 3 4 4 5 6 5 4 3 2 1 0 1 1 1 0 1 1 1 1 1 2 3 4 4 3 1 1 3 5 7 6 6 7 8 8 9 10 12 12 12 11 10 9 8 8 10 14 16 17 18 18 17 16 16 16 16 16 16 17 18 18 19 18 18 18 18 18 18 18 18 18 19 19 19 19 19 19 18 18 18 18
4 3 3 2 2 2 2 3 3 4 4 4 4 3 2 1 1 1 1 1 1 0 1 1 1 2 2 3 3 2 1 1 3 5 6 5 6 7 8 8 9 9 9 9 8 7 7 9 10 11 13 15 17 17 17 17 16 16 15 15 15 16 16 17 18 18 18 18 18 18 18 18 19 19 18 18 18 18 18 18 18 18 18 18 19 19
5 4 3 3 2 2 2 2 2 1 1 2 2 2 1 1 1 1 0 0 0 0 1 1 1 2 2 2 2 2 3 3 4 4 5 5 6 7 8 7 8 9 8 8 7 6 5 8 12 16 17 17 17 17 17 16 16 15 15 15 16 16 17 18 18 17 17 17 17 18 18 18 18 18 18 18 18 18 17 18 18 18 18 19 19 19
4 4 4 3 3 3 3 3 3 2 1 1 0 0 1 1 1 1 1 2 2 2 1 2 2 2 3 3 4 4 5 5 5 5 6 5 6 6 7 7 8 8 9 8 8 8 8 10 14 18 19 18 17 17 17 16 16 15 15 16 16 17 17 17 17 17 17 17 17 18 18 18 18 17 17 17 17 17 18 18 18 19 19 19 19 20
4 4 4 3 3 3 2 2 2 2 1 1 1 1 0 1 2 2 3 4 4 4 3 3 3 3 3 4 5 6 6 6 5 5 6 5 5 6 7 7 8 8 9 9 9 10 11 12 14 16 17 18 18 17 16 15 15 15 15 16 16 16 17 17 17 17 18 17 18 18 18 18 18 17 18 17 18 18 19 19 20 19 19 19 19 19
4 3 3 3 2 2 2 2 2 2 1 1 1 1 1 1 2 3 4 5 6 6 6 6 5 5 5 5 5 6 7 6 6 6 6 6 6 6 7 7 7 8 8 9 10 10 10 12 14 15 16 18 18 17 15 15 15 16 16 16 16 16 16 16 17 17 18 18 17 17 18 18 18 18 18 18 19 20 20 20 20 20 19 18 18 18
3 3 3 2 2 2 2 2 2 1 1 1 0 1 2 2 3 4 5 6 7 8 8 8 8 8 7 7 7 8 8 9 9 8 7 6 6 7 7 7 7 8 8 9 10 10 11 13 14 15 15 16 16 16 16 16 16 16 16 16 16 16 16 16 16 16 17 17 17 18 18 18 18 19 19 20 20 21 21 20 20 19 19 18 18 18
3 3 2 2 2 2 2 2 1 1 1 0 1 2 2 3 4 5 6 7 7 8 9 9 9 9 10 10 10 10 11 11 10 9 7 7 7 7 7 8 8 9 9 9 10 11 12 13 14 15 14 14 14 15 16 18 18 18 17 17 17 16 16 16 16 16 16 17 17 18 18 19 19 19 20 21 21 21 21 20 19 19 19 19 19 19
3 2 2 2 2 2 2 2 1 1 0 1 1 2 3 3 4 4 5 6 7 8 8 9 9 10 10 10 11 11 11 10 9 8 7 7 8 9 9 9 10 9 9 10 10 11 12 12 12 13 13 14 15 16 17 18 18 18 18 18 17 17 16 15 15 16 16 17 18 18 19 19 19 20 20 21 21 21 21 20 20 20 20 20 21 21
2 2 2 2 2 2 2 1 1 1 1 1 2 2 3 3 4 4 5 6 6 7 7 8 8 9 9 9 9 9 8 7 6 5 5 6 7 8 9 10 10 10 10 10 10 11 11 12 12 12 13 14 16 17 17 17 17 18 19 19 19 17 15 15 15 16 16 17 17 18 19 19 19 20 20 21 21 21 21 21 22 21 21 21 22 22
2 2 2 2 2 1 1 1 1 1 2 2 2 3 3 3 3 4 4 5 5 5 6 6 7 7 6 6 6 6 6 5 5 4 4 5 6 7 9 10 10 10 10 10 11 11 12 12 13 14 15 15 16 17 18 17 17 18 18 18 18 17 17 16 16 16 16 16 16 17 19 19 20 20 21 21 21 21 21 22 22 22 22 21 22 22
2 2 2 1 1 1 1 2 2 2 2 2 3 3 3 3 3 4 4 4 4 4 5 6 6 6 6 6 6 5 5 6 5 5 4 5 6 7 9 9 10 10 10 11 11 12 12 13 14 15 16 16 17 18 18 18 18 17 17 17 17 18 19 18 17 16 15 15 16 17 18 19 20 21 21 21 21 21 21 21 22 22 22 21 21 21
2 2 2 2 2 2 2 2 3 3 3 3 3 3 4 4 4 4 3 3 3 4 5 6 6 6 6 5 5 5 6 6 6 6 5 5 6 7 8 9 9 10 10 11 12 12 12 13 14 15 16 16 17 17 17 18 18 17 16 16 18 19 19 17 15 14 14 16 17 17 18 19 20 21 22 22 22 22 22 21 22 22 22 21 20 20
2 2 2 3 3 3 3 3 3 3 3 2 2 3 4 4 5 4 4 4 4 5 5 6 6 6 6 6 5 5 6 7 7 7 7 7 8 9 9 9 9 10 11 12 12 13 14 14 14 15 15 16 16 17 18 18 18 17 16 16 16 16 15 16 16 16 16 16 17 17 17 18 19 21 22 23 23 22 22 21 21 21 21 20 20 20
3 4 3 3 3 3 3 3 3 2 2 2 2 3 4 5 5 5 4 4 4 5 5 5 5 5 6 6 5 5 6 6 7 7 8 8 9 10 10 10 10 10 11 12 12 13 14 14 14 15 15 15 16 16 17 17 17 17 17 16 15 15 15 16 17 18 18 17 17 17 17 18 20 22 23 23 23 22 22 21 21 21 20 20 20 20
4 4 4 4 3 2 2 2 2 2 2 2 3 3 4 5 5 5 4 4 4 4 4 4 4 4 5 5 5 6 6 6 6 6 7 7 8 9 10 10 10 11 11 12 12 13 14 15 15 16 15 15 16 16 16 17 17 17 17 16 15 15 16 17 17 17 17 17 17 17 17 19 20 22 23 23 23 22 21 21 21 21 21 20 20 20
4 4 4 3 2 1 1 1 1 2 2 2 2 3 4 4 4 4 4 4 4 4 4 4 4 4 5 5 6 6 6 7 7 7 7 7 8 8 9 9 10 11 11 12 13 14 15 15 16 16 16 16 16 16 16 16 16 16 16 16 16 16 16 16 16 16 16 16 17 17 18 20 21 21 22 23 23 23 22 21 21 20 21 21 21 21
2 2 3 2 2 1 1 1 1 1 1 2 2 2 3 3 3 3 3 4 3 3 3 3 4 4 5 6 6 6 7 8 8 8 8 8 9 9 9 10 10 11 12 13 13 14 15 16 16 17 16 16 16 16 15 15 14 14 15 15 16 16 16 16 16 15 15 16 17 18 20 21 21 21 22 23 24 24 23 22 21 20 20 20 21 21
2 2 2 2 2 2 2 1 1 1 2 2 2 2 2 2 2 2 3 3 3 3 3 3 4 4 5 6 6 6 7 8 9 9 9 10 10 10 10 11 11 12 12 13 13 14 15 16 16 16 16 16 16 16 15 14 14 14 14 15 15 16 16 16 16 16 16 17 18 19 20 20 20 21 22 23 23 23 23 22 21 20 20 20 20 20
2 2 2 2 2 2 2 2 2 2 2 2 2 2 2 2 3 3 3 3 3 3 3 3 4 4 5 6 6 7 8 8 9 9 10 10 10 11 11 12 12 12 13 13 13 13 14 14 15 15 15 15 15 15 15 15 14 14 14 15 15 15 16 16 16 16 17 18 19 20 20 20 20 20 21 21 22 23 24 23 23 21 20 19 19 20
3 2 2 2 2 2 3 2 2 2 2 2 2 2 2 3 3 3 3 3 3 3 3 4 4 5 5 6 7 7 8 8 9 9 10 10 10 11 12 12 13 13 13 13 13 12 12 13 12 12 12 12 13 13 14 14 14 14 14 14 14 14 15 16 17 17 18 19 20 21 22 21 20 19 19 19 20 22 23 24 23 22 20 19 20 20
3 3 3 3 3 3 3 3 3 3 3 3 3 3 3 3 3 3 3 3 4 4 4 4 4 5 6 6 7 7 8 8 9 9 10 10 11 11 12 12 13 13 13 13 12 12 12 11 11 10 10 8 8 9 11 12 13 14 15 14 14 14 15 16 17 18 19 20 20 21 21 20 19 18 18 18 19 21 22 23 23 22 21 21 21 22
Wind_Direction
172 175 178 182 182 180 184 191 194 194 196 198 200 202 205 208 211 216 221 227 236 250 266 278 286 292 298 302 307 311 312 312 310 306 303 301 299 297 295 291 289 287 286 286 287 288 289 290 291 293 294 294 295 295 295 295 294 293 292 292 293 293 294 295 295 296 296 296 296 295 294 294 292 291 291 291 291 292 293 293 293 292 292 291 291 291
171 173 174 178 180 180 180 186 191 193 196 198 201 204 205 207 213 221 231 242 253 265 278 288 293 298 302 305 308 309 309 307 304 301 298 297 295 293 291 288 285 285 285 285 286 288 289 291 292 293 294 294 295 295 294 294 293 292 292 292 292 293 293 294 294 295 295 295 295 294 292 292 291 291 292 293 293 293 293 293 292 292 291 291 290 290
168 169 171 175 179 180 179 178 182 188 192 196 200 204 205 209 217 229 241 254 265 273 281 288 294 300 304 306 307 307 306 304 301 299 297 295 294 291 288 285 283 283 284 285 286 288 290 292 293 293 294 293 293 293 293 292 292 292 293 293 293 293 294 294 294 294 294 294 293 292 291 291 292 293 294 294 294 294 293 292 292 291 291 291 290 290
166 166 170 174 178 181 181 180 183 188 194 198 201 203 206 212 222 236 247 259 272 281 286 292 298 304 308 308 308 306 305 303 300 298 297 295 292 289 285 282 281 282 284 286 288 289 291 292 292 292 292 292 292 292 292 292 292 293 293 293 293 294 294 294 294 294 293 293 292 292 292 293 294 294 295 294 294 293 293 292 292 291 291 291 291 291
167 168 172 174 176 180 185 187 189 191 194 197 200 203 210 218 230 244 257 269 282 292 299 304 308 310 309 306 304 303 302 301 299 298 295 293 290 286 284 282 282 283 285 287 289 290 291 291 291 291 291 291 292 292 292 292 292 293 293 293 293 293 293 293 293 292 292 292 293 293 295 296 296 296 295 295 294 294 293 292 292 292 292 291 291 291
166 170 173 175 176 179 185 188 191 192 192 196 201 207 215 227 241 256 272 284 294 302 308 311 311 308 304 301 299 299 300 299 298 296 294 292 289 287 285 285 285 286 287 289 290 290 290 290 290 290 291 291 292 292 292 293 293 292 292 292 292 292 292 292 292 293 293 294 295 296 297 297 297 296 295 295 294 293 292 292 292 292 292 291 291 291
162 168 172 174 176 179 181 183 187 189 189 194 202 214 227 243 258 272 282 291 299 305 308 308 306 303 301 300 300 300 302 302 301 300 298 296 294 292 290 288 288 289 290 291 291 291 291 291 291 291 292 292 292 292 292 292 292 292 291 291 291 291 291 292 293 294 295 296 297 298 297 297 296 295 295 294 293 292 292 291 292 291 291 291 291 291
153 162 168 170 172 175 177 180 183 185 188 190 199 218 249 267 281 291 298 300 302 303 303 303 303 303 303 302 303 305 307 307 307 305 303 301 298 295 293 292 292 293 294 294 294 293 293 293 293 294 294 294 293 293 292 292 291 291 290 290 290 290 292 293 295 296 297 298 298 297 297 296 295 295 294 293 292 292 292 292 292 291 291 291 291 291
147 153 161 167 166 165 167 179 186 187 187 186 187 188 219 270 292 302 305 305 304 303 302 302 304 303 301 299 302 306 308 308 304 301 298 294 291 291 292 294 296 298 300 299 298 297 297 297 298 297 297 296 295 294 292 291 290 290 290 290 291 292 294 296 297 298 298 299 298 298 297 296 295 295 294 293 293 292 292 292 292 292 292 292 292 292
144 147 151 160 166 164 160 168 184 191 187 186 186 185 177 172 249 288 287 282 293 301 305 306 306 303 300 298 300 304 307 306 303 300 297 293 292 292 293 296 301 306 308 307 306 304 304 305 304 304 302 301 300 298 296 294 293 293 293 294 295 297 298 300 300 300 300 300 299 298 298 297 296 295 295 294 293 293 293 293 292 292 293 293 293 293
138 143 145 149 157 163 164 167 177 185 186 187 199 215 224 227 239 267 287 277 280 294 303 305 306 305 305 302 300 302 306 309 311 311 309 307 306 305 305 308 312 317 318 317 315 314 315 315 314 313 312 310 307 305 303 302 301 301 301 303 304 304 304 303 303 302 302 301 300 299 298 298 297 296 295 295 295 294 294 294 293 293 293 293 293 293
136 141 145 150 154 157 161 169 177 182 182 184 194 208 223 245 251 257 276 289 292 293 297 300 303 304 301 294 292 299 309 316 319 319 321 319 316 313 312 314 320 324 324 322 320 321 323 323 323 323 321 318 315 312 311 310 310 310 311 311 309 308 307 306 306 305 304 303 301 300 299 298 298 297 296 296 296 295 295 295 294 294 294 294 294 293
137 141 145 152 157 158 156 160 167 173 180 187 191 185 169 232 263 277 287 286 290 296 299 303 304 300 295 293 296 307 323 327 327 325 323 319 311 304 303 309 317 324 326 323 321 321 325 326 327 326 325 322 319 318 317 317 316 316 315 313 312 311 310 309 308 307 306 304 303 302 301 299 298 298 297 297 297 296 296 296 295 295 295 294 294 294
139 143 148 152 158 162 163 163 165 170 178 180 177 173 181 235 278 303 313 298 293 298 305 305 298 286 279 289 303 323 336 338 334 329 322 314 305 300 301 308 317 325 328 325 319 317 323 326 325 323 323 322 320 319 319 319 319 318 316 315 314 313 312 311 309 308 306 305 303 302 301 300 300 299 299 298 298 297 297 296 296 296 295 295 295 295
146 150 153 157 160 163 166 169 171 170 168 171 180 196 219 254 287 309 314 297 299 305 310 303 289 270 256 275 302 328 340 342 336 327 318 312 307 305 307 311 319 326 328 325 318 316 322 325 324 321 320 319 318 317 318 319 320 320 319 317 316 315 313 311 310 308 306 305 304 303 302 302 301 300 300 299 299 299 298 298 297 297 297 297 297 297
152 154 157 158 158 160 163 165 163 157 156 172 186 189 174 150 96 305 316 307 308 310 310 306 296 273 242 268 301 326 339 341 332 322 315 311 309 308 310 314 319 323 325 323 319 316 320 323 322 320 318 316 317 319 322 324 324 324 321 319 317 315 313 311 309 308 307 306 305 303 302 302 302 301 301 301 300 300 300 299 299 299 299 299 298 298
151 154 154 153 151 152 156 157 152 149 157 170 178 173 157 149 154 293 326 315 309 306 305 309 308 299 275 265 308 328 338 338 330 320 315 310 309 309 310 316 319 320 322 321 319 317 317 318 319 319 319 319 322 326 329 328 328 325 322 319 317 314 313 311 310 309 307 307 306 305 303 303 303 303 303 302 302 301 301 301 301 301 301 300 300 299
147 150 149 146 144 145 150 152 153 156 161 161 162 168 172 184 213 280 306 298 292 292 297 298 298 298 299 304 329 338 335 335 328 318 312 307 308 309 310 315 319 320 320 319 318 317 317 317 318 320 321 325 329 333 333 332 329 326 323 319 317 315 313 312 311 310 308 307 307 306 306 305 304 304 303 303 303 303 303 303 302 302 302 301 301 301
143 144 142 140 139 141 145 147 150 151 152 151 152 151 149 174 227 258 244 250 258 270 283 286 285 286 290 298 319 332 331 330 325 316 308 304 306 309 310 314 319 321 320 318 318 318 318 319 321 323 325 328 332 335 334 332 330 328 325 322 319 316 314 313 312 310 309 309 308 307 307 306 306 305 305 305 304 304 304 304 303 303 303 302 302 301
138 136 134 135 136 136 138 143 149 154 154 158 156 151 147 161 181 200 214 230 244 263 275 277 280 285 293 299 309 318 321 325 324 317 306 301 303 307 310 317 321 322 319 317 318 318 318 319 321 322 324 327 330 332 332 332 331 329 327 324 320 317 315 314 313 311 310 310 309 308 308 307 307 306 306 306 306 305 305 304 304 304 303 303 302 301
130 128 130 134 134 132 134 140 148 155 160 161 154 148 154 168 184 201 217 235 256 270 276 276 283 292 302 305 307 311 316 322 325 319 309 305 305 306 313 321 324 322 317 316 317 318 318 318 319 320 320 323 326 329 330 330 330 330 328 324 321 318 316 314 313 312 311 310 310 309 309 308 308 307 307 307 306 306 305 305 304 304 303 302 302 301
126 125 130 132 129 127 131 138 148 157 162 157 148 145 155 167 181 204 228 258 272 278 278 281 286 292 295 296 301 306 311 317 322 320 309 306 303 307 320 326 326 321 315 315 317 318 318 318 317 317 318 320 322 325 326 327 328 328 327 325 322 319 317 315 314 313 312 311 310 310 309 309 308 307 307 306 306 306 305 305 304 304 303 302 302 301
128 128 132 131 128 128 133 139 147 154 156 148 144 150 160 163 173 199 250 276 283 282 282 285 289 291 293 295 300 306 309 314 322 326 312 301 303 312 323 328 326 320 314 315 317 319 317 316 314 313 314 316 318 320 322 323 325 325 325 325 324 321 319 317 315 314 313 312 311 310 310 309 308 307 307 306 306 306 306 305 304 304 303 302 301 300
129 131 132 132 132 133 135 137 139 141 141 146 157 175 187 188 197 213 243 272 287 290 291 293 292 289 286 292 296 299 307 317 331 342 320 298 302 311 320 326 324 319 314 315 317 318 316 313 312 312 312 312 313 315 318 321 323 324 324 324 324 323 320 318 316 315 314 313 312 311 310 309 308 307 307 306 306 306 306 305 305 304 303 303 302 301
125 128 130 133 134 132 129 126 126 130 140 151 165 184 230 270 275 276 291 294 303 305 301 296 290 283 281 293 298 299 306 321 339 354 326 306 305 309 316 322 323 319 315 316 318 318 316 312 311 311 309 308 309 312 317 321 322 323 323 323 322 321 319 318 316 315 315 314 312 311 310 309 308 307 307 306 306 306 306 306 306 305 305 304 303 301
119 123 125 124 122 119 115 113 115 122 133 138 142 152 177 14 2 347 317 319 320 315 304 296 293 298 308 312 313 308 307 320 338 350 332 314 307 309 315 323 325 322 317 317 318 318 315 310 309 308 306 306 309 313 318 322 322 322 321 320 319 318 317 317 317 316 315 314 313 312 311 310 309 308 307 307 307 307 307 307 307 306 306 306 304 302
112 113 113 113 113 113 113 110 108 108 115 127 153 171 121 76 128 198 199 270 321 326 321 320 321 326 330 328 323 319 309 303 322 336 335 320 308 308 316 326 329 326 321 318 317 315 312 308 306 305 305 307 312 316 319 322 321 319 318 316 316 316 317 317 316 315 314 314 313 312 311 311 310 309 308 308 308 308 308 308 308 308 308 307 305 303
122 125 127 129 131 132 133 130 124 118 116 126 159 186 70 75 128 188 154 347 347 347 340 343 342 339 334 325 316 308 296 265 273 319 336 326 312 308 318 328 332 330 325 321 317 315 313 308 306 306 307 312 316 318 320 320 319 317 315 314 314 314 315 315 315 315 314 314 314 313 312 311 311 310 310 310 310 310 310 310 310 311 310 309 307 304
140 146 150 153 155 156 157 157 155 150 145 147 174 219 26 66 90 112 108 36 25 16 351 359 352 338 326 315 308 300 281 236 266 315 338 330 313 310 321 330 333 332 330 325 323 321 318 313 311 312 314 317 318 319 319 319 318 317 316 315 314 314 314 314 315 315 315 315 314 314 313 312 312 312 311 311 312 312 312 313 313 313 312 310 307 305
145 152 161 170 174 175 177 181 185 185 186 198 222 248 278 289 130 146 170 81 61 43 340 347 347 339 327 319 312 305 280 236 284 317 340 333 319 317 324 328 331 333 334 332 330 327 322 318 317 319 320 320 319 318 318 318 318 317 317 316 316 315 314 315 315 316 316 315 315 315 315 314 314 314 313 313 313 314 314 314 315 314 312 310 308 305
138 137 139 148 155 153 155 165 181 197 209 225 242 258 272 258 191 182 185 109 90 74 316 322 328 330 328 326 320 315 321 323 315 324 341 331 317 315 321 322 324 328 334 336 334 327 321 319 319 320 321 320 318 316 316 316 317 317 317 317 316 315 315 316 317 317 316 316 316 316 316 316 316 315 315 315 314 314 314 315 315 315 313 311 308 306
133 129 121 112 103 96 95 96 107 136 190 223 246 263 266 257 224 193 185 121 96 280 289 294 294 299 305 304 296 294 301 317 321 326 332 321 310 309 313 314 316 320 323 325 318 309 308 312 314 316 319 318 317 315 315 315 316 316 317 317 316 315 316 318 318 317 317 316 316 316 316 316 316 316 315 315 315 314 314 314 315 314 313 310 308 306
110 103 94 85 77 71 65 65 69 81 97 113 128 246 278 282 284 286 292 300 306 301 287 278 277 281 286 283 278 278 283 291 302 313 318 312 306 305 308 309 310 312 314 312 305 296 291 297 306 312 315 316 315 314 314 315 315 317 318 317 316 316 316 318 319 318 317 317 316 317 317 317 316 316 316 315 315 314 314 314 314 313 312 310 307 306
96 91 85 81 81 80 78 78 84 95 107 121 137 168 239 276 289 296 299 303 306 304 296 280 271 271 278 283 281 279 281 286 297 308 312 308 301 299 303 305 306 308 311 310 306 300 294 295 302 309 312 313 314 313 313 314 316 317 317 316 315 315 316 318 318 318 318 318 317 317 318 318 317 317 317 316 315 315 315 314 313 312 310 308 307 306
103 100 95 93 94 97 100 102 107 115 122 136 165 216 244 262 279 290 296 299 302 303 301 294 283 273 268 273 277 279 281 288 297 303 305 300 295 294 298 298 301 304 306 306 306 305 301 301 303 307 309 311 312 312 313 314 315 316 316 315 314 314 314 315 316 316 317 317 317 316 318 318 317 317 317 317 316 316 315 314 314 312 310 308 306 305
110 107 100 95 93 93 95 97 102 108 113 123 213 257 265 272 280 287 293 297 299 300 300 298 292 285 276 269 268 271 277 285 292 297 296 290 287 287 289 289 294 298 299 299 301 302 302 303 304 306 307 308 310 312 314 315 317 316 315 315 314 314 313 313 314 315 315 316 316 316 317 317 317 316 316 316 316 316 316 315 314 313 312 309 307 304
105 102 95 87 81 80 80 87 90 90 98 132 260 272 272 276 281 286 291 295 299 300 300 297 295 291 286 281 275 273 278 284 290 291 287 281 279 279 279 283 287 290 290 291 295 298 301 302 304 306 307 306 307 310 313 316 317 316 315 314 314 313 313 313 314 315 314 314 314 314 315 316 316 316 316 317 318 318 318 317 317 315 314 311 309 306
96 92 84 76 70 68 68 67 66 68 196 250 255 264 268 274 279 285 290 294 297 298 297 296 295 293 291 288 284 282 282 284 285 282 276 273 274 275 275 279 282 284 284 283 287 293 298 300 303 305 305 305 304 306 308 312 314 314 313 313 312 311 310 312 314 315 314 313 313 314 315 316 317 317 318 319 320 320 320 319 318 318 317 314 312 309
84 79 76 68 61 53 49 43 26 331 289 274 273 276 281 285 289 290 292 295 296 297 296 296 296 295 294 292 291 290 288 289 286 281 274 276 278 278 276 276 279 281 282 282 283 286 289 292 295 298 301 302 303 304 306 308 309 310 312 313 312 311 310 312 314 313 313 313 314 315 316 317 318 318 318 319 320 320 320 319 318 318 318 317 315 313
73 70 67 58 51 39 24 352 318 305 309 309 307 308 308 306 302 299 295 296 299 302 305 308 311 312 312 309 304 300 299 301 298 291 285 290 294 292 284 278 278 281 282 283 284 284 284 286 288 291 293 296 299 301 303 304 306 308 311 311 311 310 310 311 312 312 312 313 314 315 317 317 318 318 317 318 318 318 317 316 316 316 316 316 315 314
64 60 51 25 1 347 337 323 321 325 328 328 325 319 311 303 296 293 297 300 302 303 310 321 326 326 321 314 307 301 297 309 313 308 302 300 302 301 297 286 280 281 283 285 285 284 283 285 287 289 290 292 295 297 298 300 302 305 307 305 304 304 306 308 309 311 312 313 314 315 316 317 317 317 316 316 315 314 313 312 312 312 312 312 311 310
53 42 18 350 340 339 336 332 332 334 336 334 323 306 296 291 291 295 300 305 302 302 311 322 325 322 313 300 289 285 286 298 310 318 319 316 312 309 306 296 285 281 283 285 286 284 283 284 285 287 289 291 294 296 296 298 300 301 301 299 300 303 306 307 309 312 313 313 314 315 316 316 316 316 315 314 312 311 310 309 309 309 308 307 306 305
26 4 347 340 339 340 338 339 339 336 331 320 303 289 288 292 295 299 303 303 301 304 312 321 325 321 311 303 295 287 286 293 301 309 314 316 317 316 312 301 290 285 286 288 289 289 290 288 285 285 288 290 291 292 293 296 298 299 298 297 299 303 305 307 310 313 313 312 313 314 315 315 315 314 313 311 310 309 308 308 307 306 306 305 304 303
349 344 339 339 342 346 346 344 336 325 314 293 276 276 284 293 299 303 302 298 298 302 308 316 320 315 304 299 298 298 296 293 294 298 301 305 310 312 309 299 291 288 288 288 289 292 294 293 290 289 289 289 289 289 290 292 295 297 298 297 297 296 296 300 306 310 311 311 312 313 315 315 315 313 311 310 309 308 308 308 307 306 305 304 302 301
341 337 336 341 349 353 344 315 304 298 290 276 268 271 281 290 298 302 296 291 293 297 301 309 312 307 299 297 299 302 303 302 300 298 297 298 302 304 302 297 292 290 289 288 287 288 291 292 292 293 292 291 288 287 287 289 292 294 295 297 297 295 294 297 302 306 308 310 311 313 314 315 315 313 311 310 309 308 308 307 306 306 306 305 303 301
337 335 339 346 357 8 352 292 287 286 279 271 265 270 281 293 301 301 294 290 288 289 293 299 298 294 293 296 301 305 307 308 308 307 304 303 302 302 300 297 295 293 291 290 288 286 286 286 289 293 294 293 290 286 284 286 289 292 295 298 300 300 300 301 302 304 306 309 310 312 314 316 315 313 310 309 308 308 307 307 306 305 305 305 304 302
323 324 330 332 335 339 337 324 306 282 261 246 250 264 284 300 304 299 290 286 285 286 289 290 286 286 288 294 300 305 308 309 310 310 310 309 309 308 306 303 300 297 293 291 289 287 284 283 284 286 288 289 289 287 286 286 288 291 294 298 301 302 302 302 304 305 307 309 309 311 314 316 315 313 310 309 307 307 306 306 305 304 304 304 303 302
300 303 303 304 306 309 311 314 301 280 255 248 250 262 282 301 304 294 287 288 288 286 286 287 285 286 289 293 298 304 308 309 310 310 311 311 312 312 311 310 306 303 299 295 291 289 286 284 282 280 279 279 281 284 286 288 290 291 294 298 301 302 301 302 304 307 308 309 309 311 313 313 312 311 309 308 306 305 305 305 305 305 304 304 302 301
290 290 288 289 286 284 283 284 278 267 260 256 258 264 276 292 298 297 290 289 286 284 285 287 288 290 292 296 300 305 309 309 310 310 312 313 314 315 315 315 313 310 307 303 300 297 294 291 286 280 274 269 271 277 283 287 290 293 295 298 300 301 301 303 305 308 309 310 310 310 310 310 308 306 306 304 303 303 304 305 305 305 304 304 303 302
278 275 271 267 265 264 264 265 264 260 257 258 263 271 278 282 286 287 287 284 282 280 281 284 287 290 294 297 302 306 308 310 311 311 312 314 316 317 317 318 318 317 316 313 312 311 309 306 301 291 278 268 266 271 280 287 292 296 297 298 299 300 302 303 306 308 310 310 310 310 309 308 306 304 303 301 300 301 303 304 304 304 305 305 304 303
268 266 263 259 257 257 258 257 256 256 257 262 272 280 282 281 278 277 278 278 278 280 280 280 282 286 292 297 301 304 305 308 309 310 312 314 317 318 318 318 320 320 320 319 319 320 319 318 316 312 304 287 272 271 279 288 295 299 300 299 300 302 303 305 306 308 309 309 309 309 309 307 305 304 304 302 301 302 302 303 303 304 305 306 306 305